Location: Austin
(30.3000°N, 97.7500°W)
Time: 05:27:51
(UTC-06:00)

Cosmos 2278 Rocket - Pass Details

Date: 03 March 2026
Orbit: 838 x 846 km, 71.0° (Epoch: 5 March)

Event Time Altitude Azimuth Distance (km) Brightness Sun altitude
Rises 19:26:27 0° 185° (S) 3,378 5.4 -12.7°
Reaches altitude 10° 19:28:57 10° 180° (S) 2,448 4.6 -13.2°
Maximum altitude 19:34:21 51° 105° (ESE) 1,055 2.3 -14.4°
Drops below altitude 10° 19:39:48 10° 31° (NNE) 2,465 4.3 -15.6°
Sets 19:42:19 0° 27° (NNE) 3,404 5.1 -16.1°
